Theta_e
290 284 282 284 282 282 282 281 278 281 285 285 283 284 285 286 287 286 285 284 286 288 291 292 293 292 293 292 290 290 290 290 291 291 290 291 290 289 289 290 290 289 289 290
284 282 286 287 287 285 283 279 279 282 284 284 282 283 286 287 288 289 288 286 287 288 289 290 291 291 292 290 289 289 289 290 290 291 290 290 289 289 289 289 289 288 288 288
281 285 289 288 286 284 282 280 279 280 283 283 281 280 282 284 286 290 290 288 288 289 289 290 290 289 289 288 288 289 289 289 289 291 290 289 289 287 286 286 286 287 287 287
284 288 286 284 284 285 280 285 284 284 280 276 280 274 280 281 283 285 288 286 288 289 291 290 290 289 289 288 288 289 289 290 290 290 287 286 285 283 285 285 285 286 286 286
281 283 283 283 284 287 283 287 285 283 280 278 278 275 279 283 283 286 287 286 288 290 290 290 290 289 288 288 287 289 289 289 289 288 287 285 283 284 284 284 283 284 284 284
284 288 287 285 287 287 288 285 284 281 279 274 281 277 277 280 285 287 287 286 288 289 290 291 290 289 288 288 288 289 288 288 288 287 286 284 283 282 282 282 282 282 283 283
282 284 286 288 283 287 286 282 278 276 272 276 277 274 282 287 286 287 286 285 288 290 289 290 288 288 288 288 288 289 288 286 286 286 285 284 284 283 282 282 282 282 282 282
277 277 283 287 283 282 282 282 280 273 271 274 278 275 281 285 287 288 287 286 288 289 290 289 288 288 289 289 289 288 287 286 285 285 284 284 284 283 283 282 282 281 282 282
277 279 285 287 287 285 282 279 284 279 269 273 278 281 286 283 284 285 284 286 287 288 289 288 288 289 289 289 289 288 287 286 285 284 283 283 283 282 282 282 282 281 282 283
284 279 283 285 286 286 283 284 278 277 270 268 275 277 280 284 283 283 283 283 285 287 288 287 289 289 288 288 288 288 288 286 284 283 283 283 282 282 281 281 281 281 281 282
286 283 280 283 281 280 281 279 280 280 278 274 271 277 281 281 282 283 284 285 286 287 288 287 289 289 288 288 287 287 286 285 284 283 282 282 281 281 281 280 280 280 281 281
288 283 278 279 282 284 282 281 281 277 277 276 277 276 284 283 284 285 285 286 286 288 288 287 288 288 286 286 286 286 285 284 283 283 282 282 281 280 279 279 280 281 280 281
288 281 271 277 279 280 281 282 282 282 280 277 275 278 284 284 284 285 285 285 286 287 287 287 288 287 286 286 286 285 284 284 283 283 281 281 280 279 279 279 279 280 279 279
293 284 280 277 279 280 279 280 282 282 277 278 280 282 286 288 289 286 285 285 286 288 288 287 287 288 286 286 285 285 284 284 283 282 281 279 278 278 278 279 279 279 279 279
290 283 283 283 282 280 280 280 281 280 282 278 283 283 287 291 288 289 287 286 286 287 288 287 288 288 287 285 285 284 284 283 283 281 280 279 279 279 279 279 279 279 279 279
286 282 279 279 281 282 282 285 282 282 282 283 284 283 291 292 293 290 287 286 286 287 289 289 289 289 288 286 285 284 283 283 283 281 279 280 280 279 279 279 279 279 279 278
283 282 278 277 276 279 274 279 282 284 283 284 281 287 291 288 289 288 288 286 287 288 289 289 289 289 289 287 285 283 283 283 282 280 280 280 280 279 279 279 278 278 277 278
283 282 279 270 271 268 281 281 283 284 286 288 287 288 290 290 291 291 291 290 289 290 290 291 291 291 290 289 286 284 283 282 281 280 280 280 279 279 278 278 278 277 277 277
287 283 278 275 269 275 282 282 281 280 283 287 288 289 289 288 287 288 291 291 292 292 292 292 293 292 291 288 285 283 282 282 281 280 280 280 279 279 278 278 277 277 277 277
287 286 281 272 269 267 277 281 282 284 278 285 288 287 285 286 282 286 290 291 291 293 293 293 293 292 291 288 285 283 282 281 281 281 280 280 280 279 278 278 278 278 278 278
279 280 279 275 275 274 281 282 282 274 280 281 284 285 284 284 286 289 290 290 291 291 292 292 291 290 290 287 284 283 282 281 282 281 280 280 279 279 278 278 278 278 278 279
277 277 276 274 275 272 283 280 280 283 283 282 283 284 284 285 286 286 288 289 290 290 290 290 290 289 289 285 284 283 281 283 282 280 279 279 279 279 279 278 278 278 277 276
273 277 274 278 278 283 282 282 282 284 284 284 285 285 285 286 287 286 287 288 289 289 288 287 289 287 286 284 285 283 283 282 280 279 279 278 278 279 279 278 277 277 277 275
277 279 276 279 282 282 283 284 285 286 288 289 288 288 286 284 287 284 285 285 286 286 285 285 285 285 283 283 284 285 282 281 280 279 278 278 278 277 277 278 278 277 276 275
278 280 278 278 282 283 283 284 284 285 285 285 286 285 286 285 285 284 287 285 286 286 285 285 285 284 282 282 283 284 281 281 280 279 277 277 278 277 277 277 277 277 277 278
277 277 278 279 281 281 282 282 283 283 284 286 284 284 285 284 285 285 286 285 285 285 284 284 284 282 281 282 283 281 281 281 280 277 277 277 277 277 277 276 275 281 280 282
Wind_Speed
3 4 6 8 6 3 6 5 3 3 4 5 7 12 10 8 8 10 10 10 11 10 7 6 6 6 6 5 6 6 6 6 4 3 2 3 4 5 7 7 12 12 13 14
6 4 1 2 4 4 4 2 4 1 2 5 2 13 10 11 13 18 17 14 14 8 8 7 6 4 5 5 5 6 6 6 4 3 2 1 2 3 3 6 9 12 13 14
5 0 0 2 4 4 1 5 3 3 1 3 4 10 5 5 8 9 14 13 16 18 15 10 8 7 6 5 5 6 6 6 6 6 3 3 2 3 4 7 7 10 12 13
3 1 2 2 3 3 3 2 1 3 2 4 2 9 6 5 8 9 15 16 17 16 11 10 9 7 7 5 6 6 6 5 6 6 4 6 4 4 3 3 5 8 12 13
4 1 3 3 3 1 3 1 3 2 2 3 3 1 7 1 7 13 18 18 18 17 15 13 11 10 5 7 6 5 5 5 6 7 7 5 4 3 2 2 7 9 9 12
3 1 3 2 2 1 4 3 4 4 2 1 4 6 2 6 10 7 1 11 14 15 12 10 8 9 6 5 6 5 6 5 6 7 7 6 5 4 4 5 6 6 6 7
3 1 1 2 3 4 2 4 3 5 4 7 3 1 10 14 8 5 5 9 15 16 14 14 14 11 9 7 7 6 6 6 6 7 7 6 6 5 7 5 5 6 6 5
6 4 1 2 1 4 2 4 6 7 3 5 3 7 9 7 4 7 3 9 13 13 13 14 14 12 11 10 8 7 6 7 6 6 7 5 6 4 4 5 4 4 3 5
6 0 1 4 3 2 3 4 2 4 2 2 5 8 12 4 4 5 5 8 11 13 12 14 13 11 11 9 9 8 8 6 6 6 6 6 6 5 5 5 4 4 4 6
6 5 1 1 1 2 1 1 4 3 1 6 5 5 8 8 8 1 4 7 6 7 10 10 11 10 7 9 7 8 7 8 6 7 6 6 5 5 5 4 5 5 5 5
4 4 1 2 5 7 2 1 2 1 4 4 3 7 7 4 3 4 8 9 11 11 11 12 11 10 9 7 7 7 7 8 7 6 6 6 5 5 5 4 4 5 4 5
2 4 4 6 1 1 2 4 5 5 4 4 2 10 2 2 4 3 4 6 6 7 9 10 11 12 11 10 10 9 8 7 7 7 7 6 5 5 5 5 5 4 5 5
5 1 3 4 3 3 4 5 4 3 2 6 3 7 0 2 3 2 5 7 8 9 9 8 10 12 12 11 10 10 9 9 8 8 8 7 5 6 6 5 5 4 5 6
6 3 5 6 1 5 5 6 8 7 4 4 15 17 16 21 22 4 6 9 11 13 15 14 13 12 12 12 13 11 10 9 10 9 8 8 6 6 6 5 6 4 4 5
4 4 4 5 2 1 2 4 9 12 15 10 10 19 19 22 9 9 10 9 12 15 16 17 18 16 15 13 12 11 10 9 9 9 9 8 7 6 6 5 5 4 4 5
1 1 2 4 3 9 12 14 8 11 7 15 20 24 29 24 19 13 8 13 16 17 19 19 17 18 19 18 15 14 13 12 11 9 9 9 8 7 7 6 6 5 4 5
5 5 3 5 4 4 9 12 19 11 8 13 14 22 14 10 11 8 8 13 17 19 19 19 22 22 20 19 16 16 14 12 12 10 9 9 9 8 6 6 6 5 4 4
5 5 3 3 3 3 5 3 7 17 17 17 17 16 17 14 12 14 11 11 16 16 17 18 16 17 18 18 17 15 14 14 13 12 11 10 9 9 7 7 7 5 3 5
6 3 4 4 4 8 11 5 8 9 12 14 22 17 19 7 9 8 6 8 13 16 17 18 19 19 18 19 18 17 15 14 13 14 14 13 11 11 9 8 7 5 4 4
11 5 6 4 4 8 5 2 2 4 8 3 8 6 4 5 5 5 7 8 8 9 10 14 15 14 17 18 19 19 18 17 17 16 15 14 13 12 11 9 8 5 4 5
10 10 11 5 3 11 10 4 4 7 6 2 3 3 3 0 5 10 13 10 6 6 8 8 14 18 19 18 20 20 20 21 17 15 14 14 13 13 10 10 6 8 6 5
12 9 8 4 4 16 8 6 9 2 2 2 3 2 2 4 9 9 9 9 8 6 7 11 14 14 16 19 19 20 21 17 15 16 15 14 13 10 10 11 8 7 6 5
4 8 8 11 12 1 4 3 1 2 2 3 3 1 3 7 10 10 8 9 8 5 4 7 11 11 13 17 19 20 18 17 16 16 15 14 13 11 11 12 10 8 7 5
4 2 4 3 8 6 4 3 3 6 9 15 6 6 6 7 12 11 9 9 7 3 5 5 8 11 13 15 16 15 16 17 18 17 15 13 14 12 11 8 8 8 8 7
4 6 5 10 6 6 3 5 6 11 6 6 8 4 5 6 10 6 13 9 7 6 4 7 10 10 12 12 13 11 15 18 17 16 14 14 12 13 11 9 10 9 7 8
4 6 6 6 3 2 3 7 7 8 8 9 5 8 7 4 9 7 11 8 5 5 4 6 6 7 9 11 11 11 16 18 17 15 13 12 11 10 10 9 6 11 10 14
Wind_Direction
26 103 200 208 197 119 139 158 210 221 176 152 226 267 266 214 219 230 211 196 196 196 188 173 165 151 130 78 66 47 47 26 24 23 1 347 31 18 21 22 21 19 16 16
37 217 357 163 184 135 143 123 264 24 133 179 329 271 251 196 221 213 209 200 191 176 177 181 168 156 126 116 87 66 55 46 28 30 358 349 7 32 12 16 24 24 22 20
153 119 84 126 149 172 231 169 215 237 113 234 354 283 253 254 238 215 216 202 193 180 178 180 170 166 141 117 101 80 65 55 42 28 21 16 23 24 13 15 22 24 24 24
116 344 120 124 163 128 215 187 146 145 116 240 81 278 293 237 242 222 215 195 186 180 177 167 164 162 153 141 115 93 77 67 63 48 51 53 48 57 346 341 20 30 28 25
231 70 139 152 171 351 224 104 136 116 125 18 244 338 256 358 261 244 214 200 190 174 167 169 169 151 155 138 123 105 87 77 72 64 58 60 57 52 348 6 47 34 31 30
88 77 34 38 74 56 151 93 58 61 108 302 251 158 247 218 225 264 100 184 170 162 159 153 143 136 142 140 127 118 104 81 73 75 69 67 67 55 59 35 51 34 31 27
15 17 0 56 65 5 97 84 325 335 356 237 350 16 264 270 274 266 175 165 166 166 155 153 156 155 149 153 138 131 122 100 92 89 81 69 66 52 58 37 42 46 35 32
144 290 153 25 112 199 172 151 166 236 244 284 307 245 252 235 341 327 197 154 157 164 160 164 162 160 156 155 152 132 131 117 107 99 92 77 65 53 55 56 53 48 38 40
127 287 342 45 347 57 190 208 153 82 51 19 248 297 283 54 17 24 116 148 170 165 166 163 158 161 154 156 152 149 138 127 120 114 104 86 73 65 65 40 57 45 38 59
194 105 9 337 78 56 192 354 68 354 266 278 284 275 248 329 327 249 179 180 178 164 159 159 156 155 158 152 145 142 143 138 131 120 112 103 96 87 74 50 60 64 52 40
141 102 340 41 199 176 129 200 37 121 168 203 287 260 211 253 327 248 225 201 179 179 173 164 160 154 154 145 142 143 140 140 136 127 118 109 104 92 84 64 49 52 60 47
190 111 168 192 217 192 175 202 170 146 221 257 272 264 189 270 314 278 255 181 181 181 174 168 161 154 157 160 155 160 151 149 145 140 126 117 116 100 85 79 57 42 62 53
179 178 49 357 29 8 210 197 186 128 75 208 183 255 55 22 54 144 170 177 172 165 155 168 168 170 169 164 167 164 163 157 149 145 136 128 131 117 107 95 69 46 58 57
90 152 180 184 119 125 192 196 197 171 165 206 239 282 283 283 279 257 193 185 180 181 176 172 179 181 181 176 170 170 165 162 154 149 141 138 144 134 125 116 98 67 51 62
98 217 193 237 152 131 269 215 185 203 219 211 266 252 264 268 274 254 211 179 182 188 188 190 185 183 180 184 175 166 160 160 158 152 147 149 141 131 122 119 106 93 74 59
86 157 98 291 248 206 250 244 232 234 233 252 256 279 265 279 281 266 217 185 200 201 201 197 191 186 184 186 179 167 165 166 159 158 154 149 143 139 134 129 117 105 89 71
153 174 114 259 337 118 288 220 214 216 197 222 232 243 303 297 286 269 250 203 208 209 204 196 195 192 189 184 175 173 166 157 158 158 157 157 151 146 144 139 126 121 111 94
154 142 144 223 35 242 229 155 194 221 242 229 260 271 279 280 294 285 258 228 219 217 209 204 200 194 189 175 174 162 162 166 161 157 160 162 158 151 150 145 138 133 129 112
148 158 148 187 214 304 290 181 164 176 276 221 237 253 261 315 308 300 306 245 238 215 208 204 197 192 177 174 167 160 162 164 167 165 168 167 163 159 158 155 152 147 142 124
181 193 188 139 160 222 241 326 151 130 303 309 215 244 299 319 347 280 341 330 270 240 209 195 188 174 173 173 164 161 169 170 179 174 172 167 163 164 164 159 158 150 151 144
191 207 214 188 214 279 232 154 146 89 235 24 129 105 108 57 231 290 316 314 311 252 202 162 162 177 178 168 167 173 171 184 178 165 163 166 164 163 162 153 155 150 158 156
175 179 201 168 203 259 162 76 185 227 46 29 23 345 65 263 286 293 302 312 317 293 158 165 171 175 166 168 173 180 184 174 162 159 163 165 162 160 159 156 157 156 152 161
222 183 175 182 210 168 174 114 215 328 287 301 292 316 309 298 304 302 302 314 315 293 221 160 169 163 166 172 183 183 180 162 158 158 165 163 159 159 163 162 163 157 158 174
241 153 204 102 237 217 240 253 214 331 332 326 304 315 322 305 327 314 310 297 295 262 195 152 141 164 176 180 189 189 167 161 159 162 165 162 164 161 166 168 168 167 171 177
189 138 186 257 294 302 248 72 10 343 330 296 309 303 309 324 317 297 317 300 288 262 184 169 167 179 182 180 186 169 164 162 167 162 165 168 169 171 168 179 177 180 182 188
196 188 189 230 131 112 250 335 327 323 311 306 318 330 335 297 304 306 302 290 269 244 185 173 173 164 174 178 181 165 167 170 166 163 167 172 167 171 171 169 160 190 180 187